Flag for Brazil Weather past 2 weeks in Boa Vista, Roraima, Brazil

Now
77 °F

Clear.


Feels Like: 79 °F
Forecast: 75 / 88 °F
Wind: 5 mph from Northeast

Location: Boa Vista Aeropor-To

Current Time: Dec 22, 2014 at 1:11:28 AM

Latest Report: Dec 22, 2014 at 12:00 AM


Visibility: 10 mi

Pressure: 29.86 "Hg

Humidity: 74%

Dew point: 68 °F

Location of Boa VistaLocation

Historic Weather in Boa Vista — Graph

°F

Boa Vista temperature yesterday

Maximum temperature yesterday: 90 °F (at 4:00 PM)
Minimum temperature yesterday: 72 °F (at 6:00 AM)
Average temperature yesterday: 81 °F

Past Weeks' High & Low Weather Summary

 TemperatureHumidityPressure
High91 °F (Dec 16, 2:00 PM)100% (Dec 13, 9:00 AM)29.98 "Hg (Dec 13, 9:00 AM)
Low68 °F (Dec 13, 9:00 AM)14% (Dec 16, 2:00 PM)29.68 "Hg (Dec 9, 5:00 PM)
Average80 °F69%29.84 "Hg
* Reported Dec 6 11:00 PM — Dec 21 11:00 PM, Boa Vista, Weather by CustomWeather, © 2014

Note: Actual official high and low records may vary slightly from our data, if they occured in-between our weather recording intervals... More about our weather records

Advertising

Boa Vista weather history for previous 24 hours

 ConditionsComfort  
Time TempWeatherWind HumidityBarometerVisibility
11:00 PM
Dec 21
77 °FClear.7 mph79%29.86 "Hg10 mi
10:00 PM79 °FClear.8 mph70%29.86 "Hg10 mi
9:00 PM81 °FClear.7 mph66%29.86 "Hg10 mi
8:00 PM81 °FClear.6 mph66%29.80 "Hg10 mi
7:00 PM84 °FPassing clouds.5 mph58%29.80 "HgN/A
6:00 PM84 °FPassing clouds.5 mph58%29.77 "HgN/A
5:00 PM88 °FScattered clouds.12 mph49%29.77 "HgN/A
4:00 PM90 °FBroken clouds.14 mph46%29.77 "HgN/A
3:00 PM88 °FBroken clouds.13 mph49%29.77 "HgN/A
2:00 PM88 °FBroken clouds.16 mph49%29.80 "HgN/A
1:00 PM86 °FPartly sunny.15 mph55%29.86 "HgN/A
12:00 PM86 °FPartly sunny.14 mph52%29.89 "HgN/A
11:00 AM84 °FPartly sunny.15 mph58%29.92 "HgN/A
10:00 AM82 °FPartly sunny.18 mph62%29.95 "HgN/A
9:00 AM81 °FPassing clouds.14 mph62%29.92 "HgN/A
8:00 AM79 °FPassing clouds.16 mph70%29.92 "HgN/A
7:00 AM73 °FSunny.6 mph83%29.89 "Hg10 mi
6:00 AM72 °FClear.8 mph88%29.83 "Hg10 mi
5:00 AM73 °FClear.9 mph83%29.83 "Hg10 mi
4:00 AM73 °FClear.13 mph83%29.80 "Hg10 mi
3:00 AM75 °FClear.13 mph78%29.80 "Hg10 mi
2:00 AM77 °FClear.12 mph74%29.83 "Hg10 mi
1:00 AM77 °FClear.14 mph74%29.83 "Hg10 mi
Weather by CustomWeather, © 2014

See weather overviewHow to use our weather pages